Regional Weather Roundup
Issued by NWS Lake Charles, LA

Home | Current Version | Previous Version | Text Only | Print | Product List | Glossary On
Versions: 1 2 3 4 5 6 7 8 9 10 11 12 13 14 15 16 17 18 19 20 21 22 23 24 25 26 27 28 29 30 31 32 33 34 35 36 37 38 39 40 41 42 43 44 45 46 47 48 49 50
000
ASUS44 KLCH 231110
RWRLCH
REGIONAL WEATHER ROUNDUP
NATIONAL WEATHER SERVICE LAKE CHARLES LA
500 AM CST THU FEB 23 2017

Note: "fair" indicates few or no clouds below 12,000 feet with no
significant weather and/or obstructions to visibility.


ACROSS SOUTHEAST TEXAS

CITY           SKY/WX    TMP DP  RH WIND       PRES   REMARKS
BEAUMONT       CLEAR     59  56  89 S7        29.76R
BEAUMONT CITY  FAIR      59  57  94 CALM      29.77R FOG
ORANGE         SUNNY     59  58  98 CALM      29.78R FOG
JASPER           N/A     54  53  98 CALM      29.79R FOG
$$

ACROSS CENTRAL LOUISIANA

CITY           SKY/WX    TMP DP  RH WIND       PRES   REMARKS
LEESVILLE      FOG       54  54  99 SE3       29.76S VSB 1/2
FULLERTON      CLOUDY    52  51  97 CALM      29.75S FOG
ALEXANDRIA INT PTCLDY    53  52  96 CALM      29.77R FOG
ESLER FIELD    CLEAR     47  47 100 CALM      29.78S FOG
DERIDDER       CLOUDY    54  53  95 CALM      29.79R FOG
OAKDALE        FOG       51  51  97 CALM      29.78S VSB 3/4
OPELOUSAS      FAIR      50  50  98 MISG      29.80R
$$

ACROSS SOUTHWEST AND SOUTH CENTRAL LOUISIANA

CITY           SKY/WX    TMP DP  RH WIND       PRES   REMARKS
SULPHUR        FOG       57  57 100 CALM      29.78R VSB 1/4
LAKE CHARLES   FOG       53  53 100 CALM      29.77R VSB 1/4
CHENNAULT INT  FOG       54  54 100 CALM      29.78R VSB 1/4
CAMERON PHI    SUNNY     64  63  94 S6        29.76S
DEQUINCY       FOG       53  53  99 CALM      29.77S VSB 3/4
JENNINGS       FOG       55  55 100 CALM      29.78R VSB 1/2
LAFAYETTE      CLEAR     57  55  93 CALM      29.78S FOG
NEW IBERIA     FOG       52  50  93 CALM      29.79S VSB 3/4
ABBEVILLE      FOG       52  52 100 MISG      29.78S VSB 1/4
PATTERSON      CLEAR     53  52  96 CALM      29.79S
SALT POINT       N/A     56  54  93 CALM      29.78R
$$

SELECTED SITES ACROSS THE REGION

CITY           SKY/WX    TMP DP  RH WIND       PRES   REMARKS
HOUSTON BUSH   CLEAR     53  51  93 CALM      29.75R
HOUSTON HOBBY  CLEAR     55  54  96 S3        29.74S
GALVESTON      CLEAR     64  62  93 S7        29.76R
COLLEGE STAT   CLEAR     56  49  77 S6        29.73R
CONROE         CLEAR     46  45  96 CALM      29.75S
HUNTSVILLE     CLEAR     59  49  69 S8        29.73S
LUFKIN         CLEAR     51  50  96 SE3       29.75R FOG
SHREVEPORT     CLEAR     56  54  93 SE5       29.73F
MONROE         PTCLDY    50  49  96 CALM      29.79S FOG
NATCHEZ MS     CLEAR     48  45  87 CALM      29.79S
BATON ROUGE    CLEAR     53  51  93 NE5       29.79R
N.O. INTL ARPT CLEAR     57  56  96 CALM      29.79S
SLIDELL        CLEAR     50  49  96 CALM      29.79S
$$

MARINE REPORTS

STATION/POSITION TIME  SKY/WX   TEMP    WIND        PRES    VSBY
                                AIR SEA DIR/SP/G
                 (UTC)          (F)     (DEG/KT/KT) (MB)    (MI)
BUOY 30 S HIGH I 1050            65 65  170/ 10/ 10 1007.6R
WVE H/P(F/S)=  1/ 3

SEA RIM ST PARK  1000            65     160/  7/  9 1008.1S
PORT ARTHUR      1048               66  160/  3/  4 1007.8R
SABINE PASS N    1048            63 68  160/  6/  8 1009.0R
TEXAS POINT      NOT AVBL
CALCASIEU PASS   1048            65 66  180/  7/ 10   N/A
LK CHARLES BEACH 1048            56 67              1008.5R
MARSH ISLAND     1000            64                   N/A
FRESH WATER LOCK 1048            59 66   80/  5/  5 1008.9F
AMERADA PASS     1048            59 60   60/  2/  3 1008.6R
$$



USA.gov is the U.S. government's official web portal to all federal, state and local government web resources and services.